Regional Weather Roundup
Issued by NWS

Home | Current Version | Previous Version | Text Only | Print | Product List | Glossary On
Versions: 1 2 3 4 5 6 7 8 9 10 11 12 13 14 15 16 17 18 19 20 21 22 23 24 25 26 27 28 29 30 31 32 33 34 35 36 37 38 39 40 41 42 43 44 45 46 47 48 49 50
000
ASUS46 KSEW 110210
RWRWA

WASHINGTON REGIONAL WEATHER ROUNDUP
NATIONAL WEATHER SERVICE SEATTLE WA
600 PM PST WED FEB 10 2016

NOTE:"FAIR" INDICATES FEW OR NO CLOUDS BELOW 12,000 FEET WITH NO
SIGNIFICANT WEATHER AND/OR OBSTRUCTIONS TO VISIBILITY.

WAZ505-507>509-110300-
SEATTLE, TACOMA, EVERETT, AND VICINITY

CITY           SKY/WX    TMP DP  RH WIND       PRES   REMARKS
EVERETT        PTCLDY    52  47  83 S15       30.25R
BOEING FIELD   MOCLDY    55  49  80 S8        30.27S
RENTON         MOCLDY    56  50  80 VRB5      30.28R
SEATAC AIRPORT MOCLDY    53  48  83 SW7       30.29R
JBLM-MCCHORD   MOCLDY    54  54  98 NW8       30.29R
PUYALLUP       MOCLDY    55  52  88 VRB5      30.28R
BREMERTON      CLOUDY    52  50  93 S13G20    30.30R
JBLM-FT LEWIS  CLOUDY    56  54  94 VRB2      30.28R
TACOMA NARROWS MOCLDY    53  48  83 SW8       30.28R
$$

WAZ001-503-506-510-514-515-110300-
NORTH INTERIOR

CITY           SKY/WX    TMP DP  RH WIND       PRES   REMARKS
BELLINGHAM     CLOUDY    52  47  83 S12       30.24R
FRIDAY HARBOR  MOCLDY    49  46  90 CALM      30.25R
EASTSOUND      PTCLDY    52  48  87 S10       30.23R
PORT ANGELES   PTCLDY    46  44  93 SE6       30.25R FOG
EDIZ HOOK      MOCLDY    47  46  94 S6        30.25R
PORT TOWNSEND  MOCLDY    50  46  87 N5        30.26R
NAS WHIDBEY    MOCLDY    49  48  97 SW5       30.30R
ARLINGTON      CLOUDY    55  46  71 S13G21    30.27R
BURLINGTON     CLOUDY    54  48  82 S7        30.26R
$$

WAZ020-022-039-040-504-511-512-110300-
SOUTHWEST INTERIOR

CITY           SKY/WX    TMP DP  RH WIND       PRES   REMARKS
SHELTON        CLOUDY    52  49  89 SW8       30.27R
OLYMPIA        CLOUDY    55  47  74 SW9       30.29R
CHEHALIS       CLOUDY    54  52  94 CALM      30.30R
KELSO          CLOUDY    55  46  71 CALM      30.33R
VANCOUVER      CLOUDY    55  45  68 SE5       30.29R
SCAPPOOSE, OR  CLOUDY    55  48  77 W5        30.29R
PORTLAND, OR   CLOUDY    55  44  66 E5        30.30R
$$

WAZ021-516-517-110300-
WASHINGTON COAST

CITY           SKY/WX    TMP DP  RH WIND       PRES   REMARKS
FORKS          CLOUDY    51  49  92 SW5       30.26R FOG
HOQUIAM        CLOUDY    52  51  97 S8        30.29R FOG
ASTORIA, OR    CLOUDY    53  52  96 SW6       30.29S
$$

WAZ019-023-024-040-518-519-110300-
CASCADE MOUNTAINS AND COLUMBIA GORGE

CITY           SKY/WX    TMP DP  RH WIND       PRES   REMARKS
STAMPEDE PASS  NOT AVBL
TROUTDALE, OR  CLOUDY    53  42  66 CALM      30.30R
THE DALLES, OR CLOUDY    48  39  71 CALM      30.30S
$$

WAZ026-027-041>044-520-521-110300-
EAST SLOPES

CITY           SKY/WX    TMP DP  RH WIND       PRES   REMARKS
OMAK           PTCLDY    36  31  82 SE8       30.28R
WENATCHEE      CLOUDY    40  32  73 E3        30.26S
ELLENSBURG     PTCLDY    31  27  85 NW6       30.26S
YAKIMA         MOCLDY    40  32  73 W5        30.28R
$$

WAZ028-034-035-110300-
COLUMBIA BASIN

CITY           SKY/WX    TMP DP  RH WIND       PRES   REMARKS
EPHRATA        CLOUDY    38  34  85 SE5       30.27R
MOSES LAKE     CLOUDY    42  35  76 SW3       30.29R
PASCO          CLOUDY    45  38  76 SE5       30.30S
HERMISTON, OR  CLOUDY    42  37  82 NE3       30.29S
$$

WAZ036>038-110300-
NORTHEAST WASHINGTON

CITY           SKY/WX    TMP DP  RH WIND       PRES   REMARKS
SPOKANE GEIGER MOCLDY    38  33  82 CALM      30.25R
SPOKANE FELTS  CLOUDY    41  36  82 CALM      30.27R
FAIRCHILD AFB  MOCLDY    37  37  98 E1        30.24R
COEURDALENE,ID CLOUDY    37  34  87 CALM      30.22S
DEER PARK      MOCLDY    35  32  88 CALM      30.27R
$$

WAZ029>033-110300-
SOUTHEAST WASHINGTON

CITY           SKY/WX    TMP DP  RH WIND       PRES   REMARKS
PULLMAN        CLOUDY    46  36  68 SE6       30.30R
LEWISTON, ID   CLOUDY    50  34  54 SE5       30.29R
WALLA WALLA    CLOUDY    47  41  80 SE8       30.29R
PENDLETON, OR  CLOUDY    47  39  74 SE5       30.29R
$$



USA.gov is the U.S. government's official web portal to all federal, state and local government web resources and services.